User: anonymous   Login
Location: Unspecified
(0.0000°N, 0.0000°E)
Time: 23:06:24
(UTC+00:00)
Language:

TBA - TO BE ASSIGNED - Orbit

View from above orbital plane
View from above orbital plane
View from above satellite
View from above satellite

Ground track
Ground track

The orbit is defined by the following mean orbital elements,

1 67945U          26145.32253571 +.00000000 +00000-0 +39062-3 0 00003
2 67945  43.0026 117.6785 0001848 282.7224  77.3421 15.27589250    09
Epoch (UTC): 25 May 2026 07:44:27
Eccentricity: 0.0001848
inclination: 43.0026°
perigee height: 482 km
apogee height: 484 km
right ascension of ascending node: 117.6785°
argument of perigee: 282.7224°
revolutions per day: 15.27589250
mean anomaly at epoch: 77.3421°

The dashed part of the orbit path shows where the satellite is in the earth's shadow,  

DLR